GW3922 Weather Reports


time (UTC)temp
C
wind
direction
speed
KPH
gust
KPH
rain 1hr
cm
rain 24hr
cm
rain mn
cm
humidity
%
barometer
mb
20260906031530 22 53 0.0 1.6 0.00 0.13 0.13 97 1013.6
20260906030033 22 53 0.0 1.6 0.00 0.13 0.13 96 1013.5
20260906024533 22 48 0.0 4.8 0.00 0.13 0.13 96 1013.4
20260906023022 22 160 0.0 1.6 0.00 0.13 0.13 96 1013.3
20260906021535 22 179 3.2 4.8 0.00 0.13 0.13 96 1013.1
20260906020030 22 55 0.0 4.8 0.00 0.13 0.13 96 1013.1
20260906014537 23 123 0.0 1.6 0.00 0.13 0.13 96 1013.0
20260906013043 23 165 1.6 3.2 0.00 0.13 0.13 95 1012.9
20260906011526 23 80 1.6 3.2 0.00 0.13 0.13 95 1012.8
20260906010028 23 193 3.2 4.8 0.00 0.13 0.13 95 1012.6
20260906004530 23 77 0.0 3.2 0.00 0.13 0.13 95 1012.5
20260906003032 23 32 0.0 4.8 0.00 0.13 0.13 95 1012.4
20260906001535 24 82 0.0 0.0 0.00 0.13 0.13 94 1012.1
20260906000026 24 80 0.0 3.2 0.00 0.13 0.13 93 1012.4
20260905234507 25 137 0.0 1.6 0.00 0.13 0.13 92 1012.0
20260905233019 25 137 0.0 0.0 0.00 0.13 0.13 92 1012.0
20260905231512 25 138 0.0 1.6 0.00 0.13 0.13 91 1012.0
20260905230019 25 138 0.0 1.6 0.00 0.13 0.13 90 1011.7
20260905224529 25 138 0.0 1.6 0.00 0.13 0.13 88 1011.5
20260905223008 25 138 0.0 3.2 0.00 0.13 0.13 87 1011.7
20260905221514 25 96 0.0 3.2 0.00 0.13 0.13 84 1011.7
20260905220019 26 36 0.0 1.6 0.00 0.13 0.13 83 1011.7
20260905214518 26 46 0.0 3.2 0.00 0.13 0.13 82 1011.8
20260905213027 26 111 0.0 1.6 0.00 0.13 0.13 83 1012.4
20260905211504 26 352 1.6 3.2 0.00 0.13 0.13 81 1012.6
20260905210009 25 23 3.2 6.4 0.00 0.13 0.13 83 1012.9
20260905204523 25 39 1.6 6.4 0.00 0.13 0.13 85 1013.0
20260905203029 24 129 0.0 4.8 0.00 0.13 0.13 88 1013.3
20260905201532 23 132 0.0 8.0 0.00 0.13 0.13 88 1013.5
20260905200009 23 147 0.0 6.4 0.00 0.13 0.13 90 1013.3
20260905194518 23 242 1.6 6.4 0.10 0.13 0.13 92 1013.1
20260905193026 23 100 0.0 8.0 0.13 0.13 0.13 93 1013.2
20260905191538 23 186 3.2 8.0 0.13 0.13 0.13 92 1013.2
20260905190044 25 272 0.0 9.7 0.13 0.13 0.13 88 1013.4
20260905184521 27 189 12.9 35.4 0.03 0.03 0.03 76 1014.9
20260905183023 30 118 0.0 0.0 0.00 0.00 0.00 75 1013.5
20260905181523 32 166 0.0 6.4 0.00 0.00 0.00 69 1012.7
20260905180029 34 56 3.2 12.9 0.00 0.00 0.00 57 1012.9
20260905174534 34 66 0.0 4.8 0.00 0.00 0.00 58 1013.3
20260905173034 33 105 0.0 4.8 0.00 0.00 0.00 56 1013.5
20260905171522 33 139 0.0 4.8 0.00 0.00 0.00 57 1013.7
20260905170029 33 147 0.0 3.2 0.00 0.00 0.00 66 1013.6
20260905164532 33 145 0.0 1.6 0.00 0.00 0.00 64 1013.9
20260905163034 32 226 4.8 6.4 0.00 0.00 0.00 63 1014.2
20260905161533 32 52 3.2 6.4 0.00 0.00 0.00 67 1014.3
20260905160029 31 169 0.0 3.2 0.00 0.00 0.00 69 1014.4
20260905154532 31 110 0.0 4.8 0.00 0.00 0.00 70 1014.5
20260905153042 31 232 1.6 6.4 0.00 0.00 0.00 72 1014.5
20260905151532 31 341 1.6 12.9 0.00 0.00 0.00 73 1014.2
20260905150036 30 355 1.6 8.0 0.00 0.00 0.00 77 1014.4
20260905144514 29 342 1.6 6.4 0.00 0.00 0.00 80 1014.5
20260905143007 28 338 0.0 4.8 0.00 0.00 0.00 81 1014.6
20260905141506 28 326 0.0 3.2 0.00 0.00 0.00 78 1014.4
20260905140006 28 332 0.0 4.8 0.00 0.00 0.00 80 1014.6
20260905134507 27 3 1.6 4.8 0.00 0.00 0.00 85 1014.6
20260905133006 27 47 0.0 0.0 0.00 0.00 0.00 86 1014.8
20260905131508 26 49 0.0 0.0 0.00 0.00 0.00 90 1014.8
20260905130011 25 49 0.0 0.0 0.00 0.00 0.00 92 1015.0
20260905124521 24 49 0.0 0.0 0.00 0.00 0.00 95 1015.3
20260905123012 23 49 0.0 1.6 0.00 0.00 0.00 98 1015.2
20260905121515 22 51 0.0 1.6 0.00 0.00 0.00 98 1015.1
20260905120009 22 51 0.0 1.6 0.00 0.00 0.00 97 1014.9
20260905114511 21 50 0.0 1.6 0.00 0.00 0.00 97 1014.8
20260905113014 21 51 1.6 3.2 0.00 0.00 0.00 97 1014.7
20260905111510 21 51 0.0 1.6 0.00 0.00 0.00 97 1014.4
20260905110008 21 51 0.0 1.6 0.00 0.00 0.00 97 1014.2
20260905104511 22 51 0.0 0.0 0.00 0.00 0.00 97 1013.9
20260905103012 22 51 0.0 1.6 0.00 0.00 0.00 97 1013.7
20260905101514 22 56 0.0 1.6 0.00 0.00 0.00 97 1013.6
20260905100024 22 56 1.6 3.2 0.00 0.00 0.00 97 1013.5
20260905094514 22 56 1.6 1.6 0.00 0.00 0.00 97 1013.4
20260905093019 22 56 0.0 3.2 0.00 0.00 0.00 97 1013.5
20260905091517 22 57 0.0 0.0 0.00 0.00 0.00 97 1013.5
20260905090018 22 50 0.0 3.2 0.00 0.00 0.00 97 1013.6
20260905084516 22 50 1.6 1.6 0.00 0.00 0.00 97 1013.9
20260905083033 22 50 0.0 1.6 0.00 0.00 0.00 97 1013.9
20260905081518 22 51 0.0 1.6 0.00 0.00 0.00 97 1014.1
20260905080020 22 39 0.0 3.2 0.00 0.00 0.00 97 1014.3
20260905074525 23 36 0.0 3.2 0.00 0.00 0.00 97 1014.4
20260905073027 23 58 1.6 4.8 0.00 0.00 0.00 97 1014.5
20260905071528 23 69 0.0 3.2 0.00 0.00 0.00 97 1014.5
20260905070025 23 69 0.0 1.6 0.00 0.00 0.00 97 1014.7
20260905064528 23 70 0.0 0.0 0.00 0.00 0.00 97 1014.9
20260905063026 23 69 0.0 3.2 0.00 0.00 0.00 97 1015.0
20260905061525 23 72 0.0 1.6 0.00 0.00 0.00 97 1015.3
20260905060033 23 55 0.0 0.0 0.00 0.00 0.00 97 1015.3
20260905054536 23 46 3.2 6.4 0.00 0.00 0.00 96 1015.3
20260905053029 23 50 0.0 3.2 0.00 0.00 0.00 96 1015.5
20260905051531 23 53 0.0 3.2 0.00 0.00 0.00 96 1015.4
20260905050013 23 50 0.0 1.6 0.00 0.00 0.00 96 1015.3
20260905044515 23 50 0.0 1.6 0.00 0.00 0.00 96 1015.5
20260905043004 24 39 1.6 3.2 0.00 0.00 0.00 96 1015.5
20260905041504 24 37 3.2 4.8 0.00 0.00 0.00 96 1015.5
20260905040007 24 87 0.0 3.2 0.00 0.00 0.00 96 1015.4
20260905034511 24 56 0.0 3.2 0.00 0.00 0.00 96 1015.3
20260905033016 24 53 0.0 3.2 0.00 0.00 0.00 95 1015.2